This demonstration page uses our WeatherBlox Daily Observations layout. Learn more.

Left ArrowRight Arrow

Hourly Observations for May 6, 2015

Temp ( °F °C ) Dew Point ( °F °C ) Humidity (%) Winds ( mph kmh ) Pressure ( in mb ) Visibility ( mi km ) Precip ( " mm )
12:53 am 00:53 Clear 65 18.3 38 3.3 37 37 N 5 7 29.83 1010 10 16 0.00 0.00
1:53 am 01:53 Clear 63 17.2 37 2.8 38 38 NW 6 9 29.82 1010 10 16 0.00 0.00
2:53 am 02:53 Mostly Cloudy 63 17.2 36 2.2 37 37 NW 7 11 29.82 1010 10 16 0.00 0.00
3:53 am 03:53 Mostly Clear 62 16.7 34 1.1 35 35 NW 7 11 29.82 1010 10 16 0.00 0.00
4:53 am 04:53 Clear 61 16.1 33 0.6 35 35 NW 7 11 29.83 1010 10 16 0.00 0.00
5:53 am 05:53 Clear 60 15.6 31 -0.6 33 33 NNW 8 13 29.83 1010 10 16 0.00 0.00
6:53 am 06:53 Sunny 60 15.6 32 0 35 35 NNW 7 11 29.84 1010 10 16 0.00 0.00
7:53 am 07:53 Sunny 64 17.8 29 -1.7 27 27 NNW 15 24 29.84 1010 10 16 0.00 0.00
8:53 am 08:53 Sunny 66 18.9 27 -2.8 23 23 N 14 22 29.84 1011 10 16 0.00 0.00
9:53 am 09:53 Sunny 69 20.6 26 -3.3 20 20 NNW 17 28 29.83 1010 10 16 0.00 0.00
10:53 am 10:53 Sunny 72 22.2 26 -3.3 18 18 NNW 14 22 29.83 1010 10 16 0.00 0.00
11:53 am 11:53 Sunny 74 23.3 23 -5 15 15 NNW 17 28 29.82 1010 10 16 0.00 0.00
12:53 pm 12:53 Sunny 77 25 19 -7.2 11 11 N 17 28 29.79 1009 10 16 0.00 0.00
1:53 pm 13:53 Sunny 79 26.1 19 -7.2 10 10 N 14 22 29.77 1008 10 16 0.00 0.00
2:53 pm 14:53 Sunny 80 26.7 10 -12.2 7 7 NNW 15 24 29.75 1007 10 16 0.00 0.00
3:53 pm 15:53 Sunny 81 27.2 5 -15 5 5 N 21 33 29.72 1007 10 16 0.00 0.00
4:53 pm 16:53 Sunny 80 26.7 1 -17.2 4 4 NE 22 35 29.71 1006 10 16 0.00 0.00
5:53 pm 17:53 Sunny 79 26.1 7 -13.9 6 6 NNE 22 35 29.71 1006 10 16 0.00 0.00
6:53 pm 18:53 Sunny 76 24.4 8 -13.3 7 7 NNE 15 24 29.72 1006 10 16 0.00 0.00
7:53 pm 19:53 Sunny 72 22.2 13 -10.6 10 10 NNE 15 24 29.73 1007 10 16 0.00 0.00
8:53 pm 20:53 Clear 69 20.6 17 -8.3 14 14 N 14 22 29.75 1008 10 16 0.00 0.00
9:53 pm 21:53 Clear 67 19.4 22 -5.6 18 18 N 10 17 29.79 1009 10 16 0.00 0.00
10:53 pm 22:53 Mostly Clear 66 18.9 24 -4.4 20 20 NNE 14 22 29.81 1010 10 16 0.00 0.00
11:53 pm 23:53 Mostly Cloudy 65 18.3 27 -2.8 24 24 NNE 22 35 29.83 1010 10 16 0.00 0.00

Powered by AerisWeather